Location: Erlenbrunn
(49.1717°N, 7.6142°E)
Time: 04:56:19
(UTC+00:00)

CZ-2C R/B - Pass Details

Date: 25 November 2020
Orbit: 705 x 907 km, 98.1° (Epoch: 24 January)

Event Time Altitude Azimuth Distance (km) Brightness Sun altitude
Rises 18:03:56 0° 168° (SSE) 3,286 6.2 -23.3°
Reaches altitude 10° 18:06:19 10° 169° (S) 2,330 5.4 -23.7°
Maximum altitude 18:11:26 79° 257° (WSW) 773 3.0 -24.5°
Drops below altitude 10° 18:16:21 10° 344° (NNW) 2,237 5.5 -25.3°
Sets 18:18:35 0° 346° (NNW) 3,144 6.3 -25.7°
